ATLAS 5 CENTAUR DEB, 44845

Orbit data source: Space-Track

ATLAS 5 CENTAUR DEB, 44845 is space debris in HEO originally from a launch on Wed, 17 Sep 2014 UTC launched from the Air Force Eastern Test Range (AFETR). Debris objects in space refer to the collection of defunct objects orbiting the Earth. Examples of debris include non-operational satellites, rocket bodies, and fragments generated from explosions, collisions, or faulty payload assembly.

Loading next visibility...
Identifier
44845, 2014-055CD
Orbit
HEO
Country
Flag of USUS
Related business
Flag of USUnited Launch Alliance/Lockheed Martin (US)
Manufacturer
Unknown
Mission
Spacecraft
Bus & Motor
Unknown
Mass
Unknown
Launch date (UTC)
2014-09-17 (12 years ago)
Launch vehicle
Unknown
Launch site
Air Force Eastern Test Range (AFETR)
Object type
Payload
Rocket body
Debris
Shape & HBR
Unknown shape, 1.1 m
Radar Cross Section
Medium (>0.1 m² and <1 m²)

Expand to show TLE details & history
Last TLE update: 1 week ago

TLE from 1 week ago
0 ATLAS 5 CENTAUR DEB
1 44845U 14055CD  26151.18091448 -.00000077  00000-0  00000-0 0  9995
2 44845  20.4307 129.4976 4991332 189.3443 156.0204  1.84918305 44111
Epoch: 2026-05-31T04:20Z
TLE epoch observation values (Epoch: 2026-05-31T04:20:31.011Z)
Latitude
-0.00002°
Longitude
175.6352°
Altitude
35,091.987 km
Speed
2.238 km/s
True Right ascension
08h 37m 48s
True Declination
0° 00' 00"
Sunlit
Object was in daylight at epoch
Visualization orbit readout
Latitude
Unknown
Longitude
Unknown
Altitude
Unknown
Speed
Unknown
Apparent Right ascension
Unknown
Apparent Declination
Unknown
Sunlit
N/A
Visualization observer readout
Local Sidereal Time
18:33:55
Azimuth
Unknown
Elevation
Unknown
Doppler factor
Unknown
Orbital elements
Apogee altitude
35,657.692 km
Perigee altitude
7,666.213 km
Semi-major axis
28,040.09 km
Eccentricity
0.49913
Inclination
20.4307°
RAAN
129.4976°
Arg. of periapsis
189.3443°
True anomaly
170.67321°
Mean anomaly
156.0204°
Eccentric anomaly
163.93454°
Mean motion
0.46225 °/min
Orbital period
778.8 mins
BSTAR
0
Loading maneuver chart data...
Computing Atmospheric mass density...

Documentation

Showing up to 5 results
|